Year,Month,Day,Hour,Minute,Value (Times are PST for temperature in C)
2011,04,17,00,00,2.90
2011,04,17,00,01,2.90
2011,04,17,00,02,2.90
2011,04,17,00,03,2.90
2011,04,17,00,04,2.90
2011,04,17,00,05,2.90
2011,04,17,00,06,2.80
2011,04,17,00,07,2.80
2011,04,17,00,08,2.80
2011,04,17,00,09,2.80
2011,04,17,00,10,2.80
2011,04,17,00,11,2.80
2011,04,17,00,12,2.80
2011,04,17,00,13,2.70
2011,04,17,00,14,2.70
2011,04,17,00,15,2.70
2011,04,17,00,16,2.70
2011,04,17,00,17,2.70
2011,04,17,00,18,2.70
2011,04,17,00,19,2.70
2011,04,17,00,20,2.70
2011,04,17,00,21,2.70
2011,04,17,00,22,2.70
2011,04,17,00,23,2.70
2011,04,17,00,24,2.70
2011,04,17,00,25,2.70
2011,04,17,00,26,2.70
2011,04,17,00,27,2.70
2011,04,17,00,28,2.70
2011,04,17,00,29,2.70
2011,04,17,00,30,2.70
2011,04,17,00,31,2.70
2011,04,17,00,32,2.70
2011,04,17,00,33,2.70
2011,04,17,00,34,2.70
2011,04,17,00,35,2.70
2011,04,17,00,36,2.70
2011,04,17,00,37,2.70
2011,04,17,00,38,2.70
2011,04,17,00,39,2.70
2011,04,17,00,40,2.70
2011,04,17,00,41,2.70
2011,04,17,00,42,2.70
2011,04,17,00,43,2.70
2011,04,17,00,44,2.70
2011,04,17,00,45,2.70
2011,04,17,00,46,2.70
2011,04,17,00,47,2.60
2011,04,17,00,48,2.60
2011,04,17,00,49,2.60
2011,04,17,00,50,2.60
2011,04,17,00,51,2.60
2011,04,17,00,52,2.50
2011,04,17,00,53,2.50
2011,04,17,00,54,2.50
2011,04,17,00,55,2.40
2011,04,17,00,56,2.40
2011,04,17,00,57,2.40
2011,04,17,00,58,2.40
2011,04,17,00,59,2.30
2011,04,17,01,00,2.30
2011,04,17,01,01,2.30
2011,04,17,01,02,2.30
2011,04,17,01,03,2.20
2011,04,17,01,04,2.30
2011,04,17,01,05,2.30
2011,04,17,01,06,2.30
2011,04,17,01,07,2.30
2011,04,17,01,08,2.20
2011,04,17,01,09,2.20
2011,04,17,01,10,2.30
2011,04,17,01,11,2.30
2011,04,17,01,12,2.30
2011,04,17,01,13,2.30
2011,04,17,01,14,2.30
2011,04,17,01,15,2.30
2011,04,17,01,16,2.30
2011,04,17,01,17,2.30
2011,04,17,01,18,2.30
2011,04,17,01,19,2.30
2011,04,17,01,20,2.30
2011,04,17,01,21,2.30
2011,04,17,01,22,2.40
2011,04,17,01,23,2.40
2011,04,17,01,24,2.40
2011,04,17,01,25,2.40
2011,04,17,01,26,2.40
2011,04,17,01,27,2.40
2011,04,17,01,28,2.40
2011,04,17,01,29,2.40
2011,04,17,01,30,2.30
2011,04,17,01,31,2.30
2011,04,17,01,32,2.30
2011,04,17,01,33,2.30
2011,04,17,01,34,2.30
2011,04,17,01,35,2.30
2011,04,17,01,36,2.30
2011,04,17,01,37,2.30
2011,04,17,01,38,2.30
2011,04,17,01,39,2.20
2011,04,17,01,40,2.20
2011,04,17,01,41,2.20
2011,04,17,01,42,2.20
2011,04,17,01,43,2.20
2011,04,17,01,44,2.20
2011,04,17,01,45,2.20
2011,04,17,01,46,2.20
2011,04,17,01,47,2.20
2011,04,17,01,48,2.20
2011,04,17,01,49,2.20
2011,04,17,01,50,2.20
2011,04,17,01,51,2.20
2011,04,17,01,52,2.20
2011,04,17,01,53,2.20
2011,04,17,01,54,2.20
2011,04,17,01,55,2.20
2011,04,17,01,56,2.10
2011,04,17,01,57,2.10
2011,04,17,01,58,2.10
2011,04,17,01,59,2.10
2011,04,17,02,00,2.20
2011,04,17,02,01,2.20
2011,04,17,02,02,2.10
2011,04,17,02,03,2.10
2011,04,17,02,04,2.10
2011,04,17,02,05,2.10
2011,04,17,02,06,2.10
2011,04,17,02,07,2.10
2011,04,17,02,08,2.10
2011,04,17,02,09,2.00
2011,04,17,02,10,2.00
2011,04,17,02,11,2.00
2011,04,17,02,12,1.90
2011,04,17,02,13,1.90
2011,04,17,02,14,1.90
2011,04,17,02,15,1.90
2011,04,17,02,16,1.90
2011,04,17,02,17,1.90
2011,04,17,02,18,1.80
2011,04,17,02,19,1.80
2011,04,17,02,20,1.80
2011,04,17,02,21,1.80
2011,04,17,02,22,1.80
2011,04,17,02,23,1.80
2011,04,17,02,24,1.70
2011,04,17,02,25,1.70
2011,04,17,02,26,1.70
2011,04,17,02,27,1.70
2011,04,17,02,28,1.70
2011,04,17,02,29,1.70
2011,04,17,02,30,1.70
2011,04,17,02,31,1.70
2011,04,17,02,32,1.80
2011,04,17,02,33,1.80
2011,04,17,02,34,1.80
2011,04,17,02,35,1.80
2011,04,17,02,36,1.80
2011,04,17,02,37,1.80
2011,04,17,02,38,1.80
2011,04,17,02,39,1.80
2011,04,17,02,40,1.80
2011,04,17,02,41,1.90
2011,04,17,02,42,1.90
2011,04,17,02,43,1.90
2011,04,17,02,44,1.90
2011,04,17,02,45,1.90
2011,04,17,02,46,1.90
2011,04,17,02,47,1.90
2011,04,17,02,48,2.00
2011,04,17,02,49,2.10
2011,04,17,02,50,2.10
2011,04,17,02,51,2.20
2011,04,17,02,52,2.20
2011,04,17,02,53,2.20
2011,04,17,02,54,2.20
2011,04,17,02,55,2.20
2011,04,17,02,56,2.20
2011,04,17,02,57,2.10
2011,04,17,02,58,2.10
2011,04,17,02,59,2.10
2011,04,17,03,00,2.10
2011,04,17,03,01,2.10
2011,04,17,03,02,2.10
2011,04,17,03,03,2.10
2011,04,17,03,04,2.10
2011,04,17,03,05,2.10
2011,04,17,03,06,2.10
2011,04,17,03,07,2.10
2011,04,17,03,08,2.20
2011,04,17,03,09,2.20
2011,04,17,03,10,2.20
2011,04,17,03,11,2.20
2011,04,17,03,12,2.30
2011,04,17,03,13,2.30
2011,04,17,03,14,2.30
2011,04,17,03,15,2.30
2011,04,17,03,16,2.40
2011,04,17,03,17,2.40
2011,04,17,03,18,2.40
2011,04,17,03,19,2.40
2011,04,17,03,20,2.40
2011,04,17,03,21,2.30
2011,04,17,03,22,2.30
2011,04,17,03,23,2.40
2011,04,17,03,24,2.40
2011,04,17,03,25,2.50
2011,04,17,03,26,2.50
2011,04,17,03,27,2.60
2011,04,17,03,28,2.60
2011,04,17,03,29,2.60
2011,04,17,03,30,2.70
2011,04,17,03,31,2.70
2011,04,17,03,32,2.80
2011,04,17,03,33,2.80
2011,04,17,03,34,2.80
2011,04,17,03,35,2.90
2011,04,17,03,36,2.90
2011,04,17,03,37,2.90
2011,04,17,03,38,2.90
2011,04,17,03,39,2.90
2011,04,17,03,40,2.90
2011,04,17,03,41,2.90
2011,04,17,03,42,2.80
2011,04,17,03,43,2.80
2011,04,17,03,44,2.80
2011,04,17,03,45,2.70
2011,04,17,03,46,2.70
2011,04,17,03,47,2.70
2011,04,17,03,48,2.70
2011,04,17,03,49,2.70
2011,04,17,03,50,2.70
2011,04,17,03,51,2.60
2011,04,17,03,52,2.60
2011,04,17,03,53,2.60
2011,04,17,03,54,2.60
2011,04,17,03,55,2.60
2011,04,17,03,56,2.60
2011,04,17,03,57,2.60
2011,04,17,03,58,2.60
2011,04,17,03,59,2.60
2011,04,17,04,00,2.50
2011,04,17,04,01,2.50
2011,04,17,04,02,2.50
2011,04,17,04,03,2.60
2011,04,17,04,04,2.60
2011,04,17,04,05,2.60
2011,04,17,04,06,2.70
2011,04,17,04,07,2.80
2011,04,17,04,08,2.90
2011,04,17,04,09,3.00
2011,04,17,04,10,3.10
2011,04,17,04,11,3.20
2011,04,17,04,12,3.30
2011,04,17,04,13,3.30
2011,04,17,04,14,3.40
2011,04,17,04,15,3.40
2011,04,17,04,16,3.40
2011,04,17,04,17,3.50
2011,04,17,04,18,3.50
2011,04,17,04,19,3.60
2011,04,17,04,20,3.70
2011,04,17,04,21,3.70
2011,04,17,04,22,3.70
2011,04,17,04,23,3.80
2011,04,17,04,24,3.80
2011,04,17,04,25,3.80
2011,04,17,04,26,3.80
2011,04,17,04,27,3.80
2011,04,17,04,28,3.90
2011,04,17,04,29,3.90
2011,04,17,04,30,3.90
2011,04,17,04,31,4.00
2011,04,17,04,32,4.10
2011,04,17,04,33,4.10
2011,04,17,04,34,4.10
2011,04,17,04,35,4.20
2011,04,17,04,36,4.20
2011,04,17,04,37,4.20
2011,04,17,04,38,4.20
2011,04,17,04,39,4.20
2011,04,17,04,40,4.20
2011,04,17,04,41,4.20
2011,04,17,04,42,4.20
2011,04,17,04,43,4.20
2011,04,17,04,44,4.20
2011,04,17,04,45,4.20
2011,04,17,04,46,4.20
2011,04,17,04,47,4.20
2011,04,17,04,48,4.20
2011,04,17,04,49,4.10
2011,04,17,04,50,4.10
2011,04,17,04,51,4.00
2011,04,17,04,52,4.00
2011,04,17,04,53,3.90
2011,04,17,04,54,3.90
2011,04,17,04,55,3.90
2011,04,17,04,56,3.80
2011,04,17,04,57,3.80
2011,04,17,04,58,3.80
2011,04,17,04,59,3.80
2011,04,17,05,00,3.70
2011,04,17,05,01,3.70
2011,04,17,05,02,3.70
2011,04,17,05,03,3.70
2011,04,17,05,04,3.60
2011,04,17,05,05,3.60
2011,04,17,05,06,3.50
2011,04,17,05,07,3.50
2011,04,17,05,08,3.40
2011,04,17,05,09,3.40
2011,04,17,05,10,3.30
2011,04,17,05,11,3.30
2011,04,17,05,12,3.30
2011,04,17,05,13,3.20
2011,04,17,05,14,3.20
2011,04,17,05,15,3.20
2011,04,17,05,16,3.20
2011,04,17,05,17,3.20
2011,04,17,05,18,3.10
2011,04,17,05,19,3.10
2011,04,17,05,20,3.20
2011,04,17,05,21,3.20
2011,04,17,05,22,3.20
2011,04,17,05,23,3.20
2011,04,17,05,24,3.20
2011,04,17,05,25,3.20
2011,04,17,05,26,3.30
2011,04,17,05,27,3.50
2011,04,17,05,28,3.50
2011,04,17,05,29,3.50
2011,04,17,05,30,3.50
2011,04,17,05,31,3.50
2011,04,17,05,32,3.50
2011,04,17,05,33,3.40
2011,04,17,05,34,3.40
2011,04,17,05,35,3.30
2011,04,17,05,36,3.30
2011,04,17,05,37,3.20
2011,04,17,05,38,3.10
2011,04,17,05,39,3.10
2011,04,17,05,40,3.00
2011,04,17,05,41,3.00
2011,04,17,05,42,2.90
2011,04,17,05,43,2.90
2011,04,17,05,44,2.80
2011,04,17,05,45,2.80
2011,04,17,05,46,2.80
2011,04,17,05,47,2.80
2011,04,17,05,48,2.80
2011,04,17,05,49,2.70
2011,04,17,05,50,2.70
2011,04,17,05,51,2.70
2011,04,17,05,52,2.70
2011,04,17,05,53,2.70
2011,04,17,05,54,2.60
2011,04,17,05,55,2.60
2011,04,17,05,56,2.50
2011,04,17,05,57,2.50
2011,04,17,05,58,2.50
2011,04,17,05,59,2.40
2011,04,17,06,00,2.40
2011,04,17,06,01,2.40
2011,04,17,06,02,2.40
2011,04,17,06,03,2.30
2011,04,17,06,04,2.30
2011,04,17,06,05,2.30
2011,04,17,06,06,2.30
2011,04,17,06,07,2.30
2011,04,17,06,08,2.30
2011,04,17,06,09,2.30
2011,04,17,06,10,2.30
2011,04,17,06,11,2.30
2011,04,17,06,12,2.20
2011,04,17,06,13,2.20
2011,04,17,06,14,2.20
2011,04,17,06,15,2.20
2011,04,17,06,16,2.20
2011,04,17,06,17,2.20
2011,04,17,06,18,2.10
2011,04,17,06,19,2.10
2011,04,17,06,20,2.10
2011,04,17,06,21,2.10
2011,04,17,06,22,2.10
2011,04,17,06,23,2.10
2011,04,17,06,24,2.10
2011,04,17,06,25,2.10
2011,04,17,06,26,2.10
2011,04,17,06,27,2.10
2011,04,17,06,28,2.20
2011,04,17,06,29,2.20
2011,04,17,06,30,2.20
2011,04,17,06,31,2.30
2011,04,17,06,32,2.30
2011,04,17,06,33,2.30
2011,04,17,06,34,2.30
2011,04,17,06,35,2.30
2011,04,17,06,36,2.30
2011,04,17,06,37,2.30
2011,04,17,06,38,2.30
2011,04,17,06,39,2.30
2011,04,17,06,40,2.30
2011,04,17,06,41,2.30
2011,04,17,06,42,2.30
2011,04,17,06,43,2.30
2011,04,17,06,44,2.40
2011,04,17,06,45,2.40
2011,04,17,06,46,2.40
2011,04,17,06,47,2.30
2011,04,17,06,48,2.40
2011,04,17,06,49,2.40
2011,04,17,06,50,2.40
2011,04,17,06,51,2.40
2011,04,17,06,52,2.40
2011,04,17,06,53,2.40
2011,04,17,06,54,2.40
2011,04,17,06,55,2.40
2011,04,17,06,56,2.50
2011,04,17,06,57,2.50
2011,04,17,06,58,2.60
2011,04,17,06,59,2.70
2011,04,17,07,00,2.70
2011,04,17,07,01,2.80
2011,04,17,07,02,2.90
2011,04,17,07,03,2.90
2011,04,17,07,04,3.00
2011,04,17,07,05,3.10
2011,04,17,07,06,3.10
2011,04,17,07,07,3.20
2011,04,17,07,08,3.20
2011,04,17,07,09,3.30
2011,04,17,07,10,3.40
2011,04,17,07,11,3.50
2011,04,17,07,12,3.60
2011,04,17,07,13,3.70
2011,04,17,07,14,3.80
2011,04,17,07,15,3.80
2011,04,17,07,16,3.90
2011,04,17,07,17,4.00
2011,04,17,07,18,4.10
2011,04,17,07,19,4.10
2011,04,17,07,20,4.20
2011,04,17,07,21,4.30
2011,04,17,07,22,4.30
2011,04,17,07,23,4.40
2011,04,17,07,24,4.40
2011,04,17,07,25,4.50
2011,04,17,07,26,4.60
2011,04,17,07,27,4.60
2011,04,17,07,28,4.70
2011,04,17,07,29,4.70
2011,04,17,07,30,4.80
2011,04,17,07,31,4.80
2011,04,17,07,32,4.80
2011,04,17,07,33,4.90
2011,04,17,07,34,4.90
2011,04,17,07,35,4.90
2011,04,17,07,36,5.00
2011,04,17,07,37,5.00
2011,04,17,07,38,5.10
2011,04,17,07,39,5.10
2011,04,17,07,40,5.20
2011,04,17,07,41,5.20
2011,04,17,07,42,5.20
2011,04,17,07,43,5.30
2011,04,17,07,44,5.30
2011,04,17,07,45,5.40
2011,04,17,07,46,5.40
2011,04,17,07,47,5.40
2011,04,17,07,48,5.50
2011,04,17,07,49,5.50
2011,04,17,07,50,5.60
2011,04,17,07,51,5.60
2011,04,17,07,52,5.60
2011,04,17,07,53,5.70
2011,04,17,07,54,5.70
2011,04,17,07,55,5.70
2011,04,17,07,56,5.70
2011,04,17,07,57,5.70
2011,04,17,07,58,5.80
2011,04,17,07,59,5.80
2011,04,17,08,00,5.80
2011,04,17,08,01,5.80
2011,04,17,08,02,5.80
2011,04,17,08,03,5.80
2011,04,17,08,04,5.90
2011,04,17,08,05,5.90
2011,04,17,08,06,5.90
2011,04,17,08,07,6.00
2011,04,17,08,08,6.00
2011,04,17,08,09,6.00
2011,04,17,08,10,6.00
2011,04,17,08,11,6.00
2011,04,17,08,12,6.00
2011,04,17,08,13,6.00
2011,04,17,08,14,6.00
2011,04,17,08,15,6.10
2011,04,17,08,16,6.10
2011,04,17,08,17,6.20
2011,04,17,08,18,6.20
2011,04,17,08,19,6.20
2011,04,17,08,20,6.30
2011,04,17,08,21,6.30
2011,04,17,08,22,6.30
2011,04,17,08,23,6.40
2011,04,17,08,24,6.30
2011,04,17,08,25,6.30
2011,04,17,08,26,6.40
2011,04,17,08,27,6.40
2011,04,17,08,28,6.50
2011,04,17,08,29,6.50
2011,04,17,08,30,6.50
2011,04,17,08,31,6.50
2011,04,17,08,32,6.60
2011,04,17,08,33,6.60
2011,04,17,08,34,6.60
2011,04,17,08,35,6.60
2011,04,17,08,36,6.70
2011,04,17,08,37,6.70
2011,04,17,08,38,6.70
2011,04,17,08,39,6.70
2011,04,17,08,40,6.70
2011,04,17,08,41,6.80
2011,04,17,08,42,6.80
2011,04,17,08,43,6.80
2011,04,17,08,44,6.90
2011,04,17,08,45,7.10
2011,04,17,08,46,7.10
2011,04,17,08,47,7.10
2011,04,17,08,48,7.20
2011,04,17,08,49,7.20
2011,04,17,08,50,7.20
2011,04,17,08,51,7.20
2011,04,17,08,52,7.20
2011,04,17,08,53,7.20
2011,04,17,08,54,7.10
2011,04,17,08,55,7.10
2011,04,17,08,56,7.00
2011,04,17,08,57,7.00
2011,04,17,08,58,7.00
2011,04,17,08,59,7.00
2011,04,17,09,00,7.00
2011,04,17,09,01,7.00
2011,04,17,09,02,7.10
2011,04,17,09,03,7.10
2011,04,17,09,04,7.10
2011,04,17,09,05,7.10
2011,04,17,09,06,7.10
2011,04,17,09,07,7.20
2011,04,17,09,08,7.20
2011,04,17,09,09,7.20
2011,04,17,09,10,7.20
2011,04,17,09,11,7.20
2011,04,17,09,12,7.20
2011,04,17,09,13,7.20
2011,04,17,09,14,7.20
2011,04,17,09,15,7.20
2011,04,17,09,16,7.20
2011,04,17,09,17,7.20
2011,04,17,09,18,7.20
2011,04,17,09,19,7.30
2011,04,17,09,20,7.40
2011,04,17,09,21,7.50
2011,04,17,09,22,7.50
2011,04,17,09,23,7.60
2011,04,17,09,24,7.60
2011,04,17,09,25,7.70
2011,04,17,09,26,7.70
2011,04,17,09,27,7.60
2011,04,17,09,28,7.60
2011,04,17,09,29,7.60
2011,04,17,09,30,7.60
2011,04,17,09,31,7.60
2011,04,17,09,32,7.60
2011,04,17,09,33,7.50
2011,04,17,09,34,7.50
2011,04,17,09,35,7.50
2011,04,17,09,36,7.50
2011,04,17,09,37,7.50
2011,04,17,09,38,7.60
2011,04,17,09,39,7.60
2011,04,17,09,40,7.60
2011,04,17,09,41,7.60
2011,04,17,09,42,7.60
2011,04,17,09,43,7.60
2011,04,17,09,44,7.60
2011,04,17,09,45,7.70
2011,04,17,09,46,7.60
2011,04,17,09,47,7.60
2011,04,17,09,48,7.60
2011,04,17,09,49,7.60
2011,04,17,09,50,7.70
2011,04,17,09,51,7.70
2011,04,17,09,52,7.80
2011,04,17,09,53,7.90
2011,04,17,09,54,8.00
2011,04,17,09,55,8.10
2011,04,17,09,56,8.10
2011,04,17,09,57,8.20
2011,04,17,09,58,8.30
2011,04,17,09,59,8.40
2011,04,17,10,00,8.40
2011,04,17,10,01,8.50
2011,04,17,10,02,8.60
2011,04,17,10,03,8.70
2011,04,17,10,04,8.60
2011,04,17,10,05,8.50
2011,04,17,10,06,8.50
2011,04,17,10,07,8.40
2011,04,17,10,08,8.50
2011,04,17,10,09,8.50
2011,04,17,10,10,8.50
2011,04,17,10,11,8.60
2011,04,17,10,12,8.60
2011,04,17,10,13,8.60
2011,04,17,10,14,8.60
2011,04,17,10,15,8.50
2011,04,17,10,16,8.50
2011,04,17,10,17,8.50
2011,04,17,10,18,8.40
2011,04,17,10,19,8.40
2011,04,17,10,20,8.40
2011,04,17,10,21,8.40
2011,04,17,10,22,8.40
2011,04,17,10,23,8.50
2011,04,17,10,24,8.50
2011,04,17,10,25,8.60
2011,04,17,10,26,8.50
2011,04,17,10,27,8.60
2011,04,17,10,28,8.60
2011,04,17,10,29,8.60
2011,04,17,10,30,8.60
2011,04,17,10,31,8.70
2011,04,17,10,32,8.80
2011,04,17,10,33,8.90
2011,04,17,10,34,9.00
2011,04,17,10,35,9.00
2011,04,17,10,36,9.10
2011,04,17,10,37,9.10
2011,04,17,10,38,9.20
2011,04,17,10,39,9.20
2011,04,17,10,40,9.20
2011,04,17,10,41,9.30
2011,04,17,10,42,9.30
2011,04,17,10,43,9.30
2011,04,17,10,44,9.30
2011,04,17,10,45,9.20
2011,04,17,10,46,9.10
2011,04,17,10,47,9.10
2011,04,17,10,48,9.10
2011,04,17,10,49,9.20
2011,04,17,10,50,9.40
2011,04,17,10,51,9.50
2011,04,17,10,52,9.60
2011,04,17,10,53,9.60
2011,04,17,10,54,9.70
2011,04,17,10,55,9.80
2011,04,17,10,56,9.80
2011,04,17,10,57,10.00
2011,04,17,10,58,10.00
2011,04,17,10,59,10.10
2011,04,17,11,00,10.10
2011,04,17,11,01,10.10
2011,04,17,11,02,10.10
2011,04,17,11,03,10.10
2011,04,17,11,04,10.10
2011,04,17,11,05,10.00
2011,04,17,11,06,10.00
2011,04,17,11,07,10.00
2011,04,17,11,08,9.90
2011,04,17,11,09,9.90
2011,04,17,11,10,9.80
2011,04,17,11,11,9.70
2011,04,17,11,12,9.60
2011,04,17,11,13,9.50
2011,04,17,11,14,9.20
2011,04,17,11,15,8.90
2011,04,17,11,16,8.70
2011,04,17,11,17,8.70
2011,04,17,11,18,8.70
2011,04,17,11,19,8.80
2011,04,17,11,20,8.80
2011,04,17,11,21,8.90
2011,04,17,11,22,9.00
2011,04,17,11,23,9.10
2011,04,17,11,24,9.30
2011,04,17,11,25,9.40
2011,04,17,11,26,9.60
2011,04,17,11,27,9.70
2011,04,17,11,28,9.70
2011,04,17,11,29,9.80
2011,04,17,11,30,9.70
2011,04,17,11,31,9.70
2011,04,17,11,32,9.70
2011,04,17,11,33,9.80
2011,04,17,11,34,9.80
2011,04,17,11,35,9.70
2011,04,17,11,36,9.60
2011,04,17,11,37,9.50
2011,04,17,11,38,9.40
2011,04,17,11,39,9.30
2011,04,17,11,40,9.30
2011,04,17,11,41,9.30
2011,04,17,11,42,9.20
2011,04,17,11,43,9.30
2011,04,17,11,44,9.20
2011,04,17,11,45,9.30
2011,04,17,11,46,9.30
2011,04,17,11,47,9.30
2011,04,17,11,48,9.40
2011,04,17,11,49,9.40
2011,04,17,11,50,9.30
2011,04,17,11,51,9.30
2011,04,17,11,52,9.30
2011,04,17,11,53,9.40
2011,04,17,11,54,9.40
2011,04,17,11,55,9.40
2011,04,17,11,56,9.40
2011,04,17,11,57,9.30
2011,04,17,11,58,9.20
2011,04,17,11,59,9.10
2011,04,17,12,00,9.00
2011,04,17,12,01,9.10
2011,04,17,12,02,9.10
2011,04,17,12,03,9.20
2011,04,17,12,04,9.30
2011,04,17,12,05,9.30
2011,04,17,12,06,9.40
2011,04,17,12,07,9.40
2011,04,17,12,08,9.40
2011,04,17,12,09,9.40
2011,04,17,12,10,9.40
2011,04,17,12,11,9.50
2011,04,17,12,12,9.60
2011,04,17,12,13,9.70
2011,04,17,12,14,9.80
2011,04,17,12,15,9.80
2011,04,17,12,16,9.80
2011,04,17,12,17,9.70
2011,04,17,12,18,9.70
2011,04,17,12,19,9.60
2011,04,17,12,20,9.60
2011,04,17,12,21,9.50
2011,04,17,12,22,9.50
2011,04,17,12,23,9.50
2011,04,17,12,24,9.60
2011,04,17,12,25,9.60
2011,04,17,12,26,9.70
2011,04,17,12,27,9.70
2011,04,17,12,28,9.80
2011,04,17,12,29,9.80
2011,04,17,12,30,9.80
2011,04,17,12,31,9.80
2011,04,17,12,32,9.80
2011,04,17,12,33,9.90
2011,04,17,12,34,9.90
2011,04,17,12,35,9.80
2011,04,17,12,36,9.80
2011,04,17,12,37,9.80
2011,04,17,12,38,9.90
2011,04,17,12,39,10.00
2011,04,17,12,40,10.10
2011,04,17,12,41,10.20
2011,04,17,12,42,10.30
2011,04,17,12,43,10.30
2011,04,17,12,44,10.40
2011,04,17,12,45,10.40
2011,04,17,12,46,10.40
2011,04,17,12,47,10.40
2011,04,17,12,48,10.50
2011,04,17,12,49,10.50
2011,04,17,12,50,10.40
2011,04,17,12,51,10.40
2011,04,17,12,52,10.30
2011,04,17,12,53,10.20
2011,04,17,12,54,10.20
2011,04,17,12,55,10.10
2011,04,17,12,56,10.00
2011,04,17,12,57,9.90
2011,04,17,12,58,9.90
2011,04,17,12,59,9.80
2011,04,17,13,00,9.80
2011,04,17,13,01,9.80
2011,04,17,13,02,9.80
2011,04,17,13,03,9.70
2011,04,17,13,04,9.70
2011,04,17,13,05,9.70
2011,04,17,13,06,9.70
2011,04,17,13,07,9.70
2011,04,17,13,08,9.80
2011,04,17,13,09,9.80
2011,04,17,13,10,9.70
2011,04,17,13,11,9.60
2011,04,17,13,12,9.40
2011,04,17,13,13,9.30
2011,04,17,13,14,9.20
2011,04,17,13,15,9.20
2011,04,17,13,16,9.20
2011,04,17,13,17,9.20
2011,04,17,13,18,9.20
2011,04,17,13,19,9.20
2011,04,17,13,20,9.10
2011,04,17,13,21,9.00
2011,04,17,13,22,8.90
2011,04,17,13,23,8.80
2011,04,17,13,24,8.70
2011,04,17,13,25,8.60
2011,04,17,13,26,8.50
2011,04,17,13,27,8.40
2011,04,17,13,28,8.40
2011,04,17,13,29,8.40
2011,04,17,13,30,8.40
2011,04,17,13,31,8.60
2011,04,17,13,32,8.70
2011,04,17,13,33,8.70
2011,04,17,13,34,8.70
2011,04,17,13,35,8.80
2011,04,17,13,36,8.80
2011,04,17,13,37,8.90
2011,04,17,13,38,9.00
2011,04,17,13,39,9.00
2011,04,17,13,40,9.00
2011,04,17,13,41,9.10
2011,04,17,13,42,9.00
2011,04,17,13,43,8.90
2011,04,17,13,44,8.90
2011,04,17,13,45,8.90
2011,04,17,13,46,8.80
2011,04,17,13,47,8.80
2011,04,17,13,48,8.70
2011,04,17,13,49,8.80
2011,04,17,13,50,8.90
2011,04,17,13,51,9.00
2011,04,17,13,52,9.10
2011,04,17,13,53,9.20
2011,04,17,13,54,9.30
2011,04,17,13,55,9.30
2011,04,17,13,56,9.40
2011,04,17,13,57,9.40
2011,04,17,13,58,9.50
2011,04,17,13,59,9.60
2011,04,17,14,00,9.60
2011,04,17,14,01,9.60
2011,04,17,14,02,9.60
2011,04,17,14,03,9.60
2011,04,17,14,04,9.60
2011,04,17,14,05,9.50
2011,04,17,14,06,9.50
2011,04,17,14,07,9.60
2011,04,17,14,08,9.70
2011,04,17,14,09,9.90
2011,04,17,14,10,10.00
2011,04,17,14,11,10.10
2011,04,17,14,12,10.10
2011,04,17,14,13,10.10
2011,04,17,14,14,10.10
2011,04,17,14,15,10.00
2011,04,17,14,16,9.90
2011,04,17,14,17,9.80
2011,04,17,14,18,9.60
2011,04,17,14,19,9.50
2011,04,17,14,20,9.40
2011,04,17,14,21,9.40
2011,04,17,14,22,9.30
2011,04,17,14,23,9.20
2011,04,17,14,24,9.20
2011,04,17,14,25,9.20
2011,04,17,14,26,9.10
2011,04,17,14,27,9.10
2011,04,17,14,28,9.10
2011,04,17,14,29,9.10
2011,04,17,14,30,9.10
2011,04,17,14,31,9.00
2011,04,17,14,32,9.00
2011,04,17,14,33,9.00
2011,04,17,14,34,9.10
2011,04,17,14,35,9.20
2011,04,17,14,36,9.20
2011,04,17,14,37,9.10
2011,04,17,14,38,9.10
2011,04,17,14,39,9.10
2011,04,17,14,40,9.10
2011,04,17,14,41,9.10
2011,04,17,14,42,9.10
2011,04,17,14,43,9.10
2011,04,17,14,44,9.00
2011,04,17,14,45,9.00
2011,04,17,14,46,9.00
2011,04,17,14,47,8.90
2011,04,17,14,48,8.90
2011,04,17,14,49,8.90
2011,04,17,14,50,8.90
2011,04,17,14,51,8.90
2011,04,17,14,52,9.00
2011,04,17,14,53,9.00
2011,04,17,14,54,8.90
2011,04,17,14,55,8.90
2011,04,17,14,56,8.90
2011,04,17,14,57,9.00
2011,04,17,14,58,9.10
2011,04,17,14,59,9.10
2011,04,17,15,00,9.20
2011,04,17,15,01,9.30
2011,04,17,15,02,9.30
2011,04,17,15,03,9.40
2011,04,17,15,04,9.40
2011,04,17,15,05,9.40
2011,04,17,15,06,9.50
2011,04,17,15,07,9.40
2011,04,17,15,08,9.50
2011,04,17,15,09,9.50
2011,04,17,15,10,9.50
2011,04,17,15,11,9.40
2011,04,17,15,12,9.30
2011,04,17,15,13,9.30
2011,04,17,15,14,9.20
2011,04,17,15,15,9.20
2011,04,17,15,16,9.20
2011,04,17,15,17,9.10
2011,04,17,15,18,9.10
2011,04,17,15,19,9.10
2011,04,17,15,20,9.10
2011,04,17,15,21,9.00
2011,04,17,15,22,9.00
2011,04,17,15,23,8.90
2011,04,17,15,24,8.90
2011,04,17,15,25,8.80
2011,04,17,15,26,8.80
2011,04,17,15,27,8.70
2011,04,17,15,28,8.70
2011,04,17,15,29,8.80
2011,04,17,15,30,8.70
2011,04,17,15,31,8.70
2011,04,17,15,32,8.70
2011,04,17,15,33,8.70
2011,04,17,15,34,8.70
2011,04,17,15,35,8.70
2011,04,17,15,36,8.60
2011,04,17,15,37,8.60
2011,04,17,15,38,8.50
2011,04,17,15,39,8.50
2011,04,17,15,40,8.40
2011,04,17,15,41,8.30
2011,04,17,15,42,8.30
2011,04,17,15,43,8.20
2011,04,17,15,44,8.20
2011,04,17,15,45,8.30
2011,04,17,15,46,8.30
2011,04,17,15,47,8.30
2011,04,17,15,48,8.40
2011,04,17,15,49,8.40
2011,04,17,15,50,8.50
2011,04,17,15,51,8.50
2011,04,17,15,52,8.50
2011,04,17,15,53,8.60
2011,04,17,15,54,8.60
2011,04,17,15,55,8.70
2011,04,17,15,56,8.70
2011,04,17,15,57,8.70
2011,04,17,15,58,8.70
2011,04,17,15,59,8.70
2011,04,17,16,00,8.60
2011,04,17,16,01,8.60
2011,04,17,16,02,8.60
2011,04,17,16,03,8.50
2011,04,17,16,04,8.50
2011,04,17,16,05,8.50
2011,04,17,16,06,8.40
2011,04,17,16,07,8.40
2011,04,17,16,08,8.40
2011,04,17,16,09,8.30
2011,04,17,16,10,8.30
2011,04,17,16,11,8.30
2011,04,17,16,12,8.30
2011,04,17,16,13,8.30
2011,04,17,16,14,8.20
2011,04,17,16,15,8.20
2011,04,17,16,16,8.20
2011,04,17,16,17,8.20
2011,04,17,16,18,8.20
2011,04,17,16,19,8.30
2011,04,17,16,20,8.30
2011,04,17,16,21,8.30
2011,04,17,16,22,8.30
2011,04,17,16,23,8.30
2011,04,17,16,24,8.30
2011,04,17,16,25,8.30
2011,04,17,16,26,8.30
2011,04,17,16,27,8.30
2011,04,17,16,28,8.30
2011,04,17,16,29,8.30
2011,04,17,16,30,8.30
2011,04,17,16,31,8.30
2011,04,17,16,32,8.30
2011,04,17,16,33,8.30
2011,04,17,16,34,8.30
2011,04,17,16,35,8.30
2011,04,17,16,36,8.30
2011,04,17,16,37,8.30
2011,04,17,16,38,8.30
2011,04,17,16,39,8.30
2011,04,17,16,40,8.30
2011,04,17,16,41,8.30
2011,04,17,16,42,8.40
2011,04,17,16,43,8.40
2011,04,17,16,44,8.40
2011,04,17,16,45,8.40
2011,04,17,16,46,8.40
2011,04,17,16,47,8.40
2011,04,17,16,48,8.50
2011,04,17,16,49,8.50
2011,04,17,16,50,8.50
2011,04,17,16,51,8.50
2011,04,17,16,52,8.50
2011,04,17,16,53,8.50
2011,04,17,16,54,8.60
2011,04,17,16,55,8.60
2011,04,17,16,56,8.60
2011,04,17,16,57,8.60
2011,04,17,16,58,8.50
2011,04,17,16,59,8.40
2011,04,17,17,00,8.40
2011,04,17,17,01,8.30
2011,04,17,17,02,8.30
2011,04,17,17,03,8.30
2011,04,17,17,04,8.30
2011,04,17,17,05,8.20
2011,04,17,17,06,8.20
2011,04,17,17,07,8.10
2011,04,17,17,08,8.10
2011,04,17,17,09,8.10
2011,04,17,17,10,8.00
2011,04,17,17,11,8.00
2011,04,17,17,12,7.90
2011,04,17,17,13,7.90
2011,04,17,17,14,7.90
2011,04,17,17,15,7.80
2011,04,17,17,16,7.80
2011,04,17,17,17,7.80
2011,04,17,17,18,7.80
2011,04,17,17,19,7.70
2011,04,17,17,20,7.70
2011,04,17,17,21,7.70
2011,04,17,17,22,7.60
2011,04,17,17,23,7.60
2011,04,17,17,24,7.60
2011,04,17,17,25,7.60
2011,04,17,17,26,7.50
2011,04,17,17,27,7.50
2011,04,17,17,28,7.50
2011,04,17,17,29,7.50
2011,04,17,17,30,7.50
2011,04,17,17,31,7.50
2011,04,17,17,32,7.40
2011,04,17,17,33,7.40
2011,04,17,17,34,7.40
2011,04,17,17,35,7.50
2011,04,17,17,36,7.50
2011,04,17,17,37,7.50
2011,04,17,17,38,7.50
2011,04,17,17,39,7.60
2011,04,17,17,40,7.60
2011,04,17,17,41,7.70
2011,04,17,17,42,7.70
2011,04,17,17,43,7.80
2011,04,17,17,44,7.80
2011,04,17,17,45,7.80
2011,04,17,17,46,7.90
2011,04,17,17,47,7.90
2011,04,17,17,48,8.00
2011,04,17,17,49,8.00
2011,04,17,17,50,8.10
2011,04,17,17,51,8.10
2011,04,17,17,52,8.10
2011,04,17,17,53,8.20
2011,04,17,17,54,8.20
2011,04,17,17,55,8.20
2011,04,17,17,56,8.20
2011,04,17,17,57,8.20
2011,04,17,17,58,8.20
2011,04,17,17,59,8.30
2011,04,17,18,00,8.30
2011,04,17,18,01,8.30
2011,04,17,18,02,8.30
2011,04,17,18,03,8.30
2011,04,17,18,04,8.30
2011,04,17,18,05,8.30